Versailles, OH

5:54 PM EST on February 20, 2017 (GMT -0500)
Darke County

Weather History for KVES - January, 2014

Change the Weather History Date:

Friday, January 3, 2014

  Actual Average (KDAY) Record (KDAY)
Temperature  
Mean Temperature 4 °F -  
Max Temperature 14 °F 35 °F 65 °F (1897)
Min Temperature -5 °F 21 °F -17 °F (1904)
Degree Days  
Heating Degree Days 60    
Moisture  
Dew Point -2 °F    
Average Humidity 71    
Maximum Humidity 92    
Minimum Humidity 53    
Precipitation  
Precipitation 0.00 in - - ()
Sea Level Pressure  
Sea Level Pressure 30.34 in    
Wind  
Wind Speed 7 mph (WSW)    
Max Wind Speed 13 mph    
Max Gust Speed 21 mph    
Visibility 10 miles    
Events      
Averages and records for this station are not official NWS values.
T = Trace of Precipitation, MM = Missing Value Source: NWS Daily Summary

Daily Weather History Graph

Daily Weather History Graph

Search for Another Location

Airport or City:

Trip Planner

Search our weather history database for the weather conditions in past years. The results will help you decide how hot, cold, wet, or windy it might be!

Date:

Astronomy

Jan. 03, 2014 Rise Set
Actual Time 8:00 AM EST 5:24 PM EST
Civil Twilight 7:30 AM EST 5:55 PM EST
Nautical Twilight 6:56 AM EST 6:29 PM EST
Astronomical Twilight 6:23 AM EST 7:02 PM EST
Moon 9:25 AM EST (1/3) 8:33 PM EST (1/3)
Length of Visible Light 10h 24m
Length of Day
9h 24m
Waxing Crescent, 8% of the Moon is Illuminated
Jan 3
Waxing Crescent
Jan 7
First Quarter
Jan 15
Full
Jan 24
Last Quarter
Jan 30
New

Hourly Weather History & Observations

Time (EST) Temp. Windchill Dew Point Humidity Pressure Visibility Wind Dir Wind Speed Gust Speed Precip Events Conditions
12:15 AM 5.0 °F -8.1 °F -0.4 °F 78% 30.24 in 10.0 mi NNW 8.1 mph - N/A   Clear
12:35 AM 5.0 °F -9.1 °F -0.4 °F 78% 30.27 in 10.0 mi NNW 9.2 mph - N/A   Clear
12:55 AM 5.0 °F -9.1 °F -0.4 °F 78% 30.27 in 10.0 mi NNW 9.2 mph - N/A   Clear
1:15 AM 3.2 °F -10.3 °F -2.2 °F 78% 30.27 in 10.0 mi NNW 8.1 mph - N/A   Clear
1:35 AM 1.4 °F -12.5 °F -4.0 °F 78% 30.26 in 10.0 mi NNW 8.1 mph - N/A   Clear
1:55 AM 3.2 °F -10.3 °F -4.0 °F 72% 30.28 in 10.0 mi NNW 8.1 mph - N/A   Clear
2:15 AM 1.4 °F -11.3 °F -4.0 °F 78% 30.29 in 10.0 mi NW 6.9 mph - N/A   Clear
2:35 AM 1.4 °F -11.3 °F -4.0 °F 78% 30.30 in 10.0 mi NNW 6.9 mph - N/A   Clear
2:55 AM 1.4 °F -11.3 °F -5.8 °F 72% 30.32 in 10.0 mi NW 6.9 mph - N/A   Clear
3:15 AM -0.4 °F -13.4 °F -5.8 °F 78% 30.34 in 10.0 mi NW 6.9 mph - N/A   Clear
3:35 AM -0.4 °F -13.4 °F -5.8 °F 78% 30.34 in 10.0 mi NW 6.9 mph - N/A   Clear
3:55 AM -0.4 °F -13.4 °F -7.6 °F 72% 30.34 in 10.0 mi NW 6.9 mph - N/A   Clear
4:15 AM -2.2 °F -14.2 °F -7.6 °F 78% 30.33 in 10.0 mi NW 5.8 mph - N/A   Clear
4:35 AM -2.2 °F -16.8 °F -7.6 °F 78% 30.34 in 10.0 mi WNW 8.1 mph - N/A   Clear
4:55 AM -2.2 °F -16.8 °F -7.6 °F 78% 30.35 in 10.0 mi WNW 8.1 mph - N/A   Clear
5:15 AM -4.0 °F -17.8 °F -7.6 °F 85% 30.36 in 10.0 mi WNW 6.9 mph - N/A   Clear
5:35 AM -4.0 °F -16.3 °F -7.6 °F 85% 30.36 in 10.0 mi WNW 5.8 mph - N/A   Clear
5:55 AM -4.0 °F -17.8 °F -7.6 °F 85% 30.36 in 10.0 mi NW 6.9 mph - N/A   Clear
6:15 AM -4.0 °F -17.8 °F -7.6 °F 85% 30.37 in 10.0 mi WNW 6.9 mph - N/A   Clear
6:35 AM -4.0 °F -19.0 °F -7.6 °F 85% 30.38 in 10.0 mi WNW 8.1 mph - N/A   Clear
6:55 AM -4.0 °F -17.8 °F -7.6 °F 85% 30.39 in 10.0 mi WNW 6.9 mph - N/A   Clear
7:15 AM -4.0 °F -17.8 °F -7.6 °F 85% 30.39 in 10.0 mi WNW 6.9 mph - N/A   Clear
7:35 AM -5.8 °F - -9.4 °F 84% 30.40 in 10.0 mi Calm Calm - N/A   Clear
7:55 AM -5.8 °F -16.7 °F -9.4 °F 84% 30.40 in 10.0 mi West 4.6 mph - N/A   Clear
8:15 AM -5.8 °F -14.5 °F -7.6 °F 92% 30.41 in 7.0 mi WSW 3.5 mph - N/A   Clear
8:35 AM -4.0 °F - -7.6 °F 85% 30.41 in 10.0 mi Calm Calm - N/A   Clear
8:55 AM -4.0 °F - -7.6 °F 85% 30.42 in 10.0 mi Calm Calm - N/A   Clear
9:15 AM -2.2 °F - -5.8 °F 85% 30.43 in 10.0 mi Calm Calm - N/A   Clear
9:35 AM -0.4 °F -10.4 °F -4.0 °F 85% 30.45 in 10.0 mi WSW 4.6 mph - N/A   Clear
9:55 AM 1.4 °F -8.3 °F -4.0 °F 78% 30.44 in 10.0 mi West 4.6 mph - N/A   Clear
10:15 AM 1.4 °F -6.2 °F -4.0 °F 78% 30.44 in 10.0 mi West 3.5 mph - N/A   Clear
10:35 AM 3.2 °F -4.2 °F -4.0 °F 72% 30.46 in 10.0 mi West 3.5 mph - N/A   Clear
10:55 AM 5.0 °F -2.1 °F -2.2 °F 72% 30.45 in 10.0 mi West 3.5 mph - N/A   Clear
11:15 AM 5.0 °F - -2.2 °F 72% 30.45 in 10.0 mi Calm Calm - N/A   Clear
11:35 AM 8.6 °F 2.0 °F -0.4 °F 67% 30.44 in 10.0 mi WNW 3.5 mph - N/A   Clear
11:55 AM 8.6 °F - -0.4 °F 67% 30.43 in 10.0 mi Calm Calm - N/A   Clear
12:15 PM 8.6 °F 2.0 °F -2.2 °F 62% 30.42 in 10.0 mi West 3.5 mph - N/A   Clear
12:35 PM 10.4 °F 2.2 °F -2.2 °F 57% 30.41 in 10.0 mi West 4.6 mph - N/A   Clear
12:55 PM 10.4 °F - -2.2 °F 57% 30.40 in 10.0 mi Calm Calm - N/A   Clear
1:15 PM 12.2 °F - -0.4 °F 57% 30.39 in 10.0 mi Calm Calm - N/A   Clear
1:35 PM 12.2 °F 4.3 °F -0.4 °F 57% 30.39 in 10.0 mi WSW 4.6 mph - N/A   Clear
1:55 PM 12.2 °F 2.9 °F -0.4 °F 57% 30.39 in 10.0 mi WSW 5.8 mph - N/A   Clear
2:15 PM 14.0 °F 8.2 °F -0.4 °F 53% 30.39 in 10.0 mi SW 3.5 mph - N/A   Clear
2:35 PM 14.0 °F 8.2 °F -0.4 °F 53% 30.38 in 10.0 mi South 3.5 mph - N/A   Clear
2:55 PM 14.0 °F 3.9 °F -0.4 °F 53% 30.37 in 10.0 mi South 6.9 mph - N/A   Clear
3:15 PM 14.0 °F 3.9 °F 1.4 °F 57% 30.38 in 10.0 mi SSW 6.9 mph - N/A   Clear
3:35 PM 14.0 °F 3.9 °F 1.4 °F 57% 30.37 in 10.0 mi South 6.9 mph - N/A   Clear
3:55 PM 14.0 °F 2.9 °F 1.4 °F 57% 30.36 in 10.0 mi South 8.1 mph - N/A   Clear
4:15 PM 14.0 °F 3.9 °F 1.4 °F 57% 30.37 in 10.0 mi South 6.9 mph - N/A   Clear
4:35 PM 12.2 °F 2.9 °F -0.4 °F 57% 30.36 in 10.0 mi South 5.8 mph - N/A   Clear
4:55 PM 12.2 °F 1.7 °F -0.4 °F 57% 30.34 in 10.0 mi South 6.9 mph - N/A   Scattered Clouds
5:15 PM 10.4 °F 0.8 °F -0.4 °F 62% 30.34 in 10.0 mi South 5.8 mph - N/A   Scattered Clouds
5:35 PM 12.2 °F 1.7 °F 1.4 °F 62% 30.34 in 10.0 mi South 6.9 mph - N/A   Mostly Cloudy
5:55 PM 12.2 °F 0.7 °F 1.4 °F 62% 30.33 in 10.0 mi South 8.1 mph - N/A   Overcast
6:15 PM 12.2 °F -0.2 °F 1.4 °F 62% 30.33 in 10.0 mi South 9.2 mph - N/A   Overcast
6:35 PM 12.2 °F 0.7 °F 1.4 °F 62% 30.32 in 10.0 mi South 8.1 mph - N/A   Overcast
6:55 PM 14.0 °F 2.0 °F 3.2 °F 62% 30.31 in 10.0 mi South 9.2 mph - N/A   Overcast
7:15 PM 14.0 °F 0.5 °F 3.2 °F 62% 30.29 in 10.0 mi South 11.5 mph - N/A   Overcast
7:35 PM 14.0 °F -0.2 °F 3.2 °F 62% 30.29 in 10.0 mi South 12.7 mph 18.4 mph N/A   Overcast
7:55 PM 12.2 °F -0.2 °F 3.2 °F 67% 30.30 in 10.0 mi South 9.2 mph 16.1 mph N/A   Scattered Clouds
8:15 PM 12.2 °F -1.0 °F 3.2 °F 67% 30.28 in 10.0 mi South 10.4 mph 16.1 mph N/A   Scattered Clouds
8:35 PM 12.2 °F -2.5 °F 5.0 °F 73% 30.26 in 10.0 mi South 12.7 mph 20.7 mph N/A   Mostly Cloudy
8:55 PM 12.2 °F -1.0 °F 5.0 °F 73% 30.25 in 10.0 mi South 10.4 mph - N/A   Mostly Cloudy
9:15 PM 12.2 °F -1.0 °F 5.0 °F 73% 30.25 in 10.0 mi South 10.4 mph - N/A   Clear
9:35 PM 12.2 °F -1.8 °F 5.0 °F 73% 30.24 in 10.0 mi South 11.5 mph 19.6 mph N/A   Clear
9:55 PM 10.4 °F -4.8 °F 5.0 °F 79% 30.22 in 10.0 mi South 12.7 mph - N/A   Clear
10:15 PM 12.2 °F -1.8 °F 5.0 °F 73% 30.21 in 10.0 mi South 11.5 mph 18.4 mph N/A   Clear
10:35 PM 12.2 °F -1.0 °F 5.0 °F 73% 30.21 in 10.0 mi South 10.4 mph - N/A   Clear
10:55 PM 12.2 °F -1.0 °F 5.0 °F 73% 30.20 in 10.0 mi South 10.4 mph 18.4 mph N/A   Clear
11:15 PM 12.2 °F -1.0 °F 5.0 °F 73% 30.19 in 10.0 mi South 10.4 mph 18.4 mph N/A   Clear
11:35 PM 12.2 °F -1.0 °F 5.0 °F 73% 30.18 in 10.0 mi South 10.4 mph 18.4 mph N/A   Clear
11:55 PM 12.2 °F -1.0 °F 5.0 °F 73% 30.18 in 10.0 mi South 10.4 mph - N/A   Clear